EW3643 Weather Reports


time (UTC)temp
C
wind
direction
speed
KPH
gust
KPH
rain 1hr
cm
rain 24hr
cm
rain mn
cm
humidity
%
barometer
mb
20260505035533 -17 0.0 0.0 0.00 0.00 0.00 1020.7
20260505035030 -17 0.0 0.0 0.00 0.00 0.00 1020.7
20260505034032 -17 0.0 0.0 0.00 0.00 0.00 1020.9
20260505033529 -17 0.0 0.0 0.00 0.00 0.00 1020.9
20260505033028 -17 0.0 0.0 0.00 0.00 0.00 1020.9
20260505032521 -17 0.0 0.0 0.00 0.00 0.00 1020.9
20260505032012 -17 0.0 0.0 0.00 0.00 0.00 1021.0
20260505031507 -17 0.0 0.0 0.00 0.00 0.00 1021.0
20260505031008 -17 0.0 0.0 0.00 0.00 0.00 1021.0
20260505030508 -17 0.0 0.0 0.00 0.00 0.00 1021.1
20260505030005 -17 0.0 0.0 0.00 0.00 0.00 1021.0
20260505025504 -17 0.0 0.0 0.00 0.00 0.00 1020.9
20260505025005 -17 0.0 0.0 0.00 0.00 0.00 1021.0
20260505024503 -17 0.0 0.0 0.00 0.00 0.00 1021.1
20260505024003 -17 0.0 0.0 0.00 0.00 0.00 1020.9
20260505023504 -17 0.0 0.0 0.00 0.00 0.00 1021.1
20260505023001 -17 0.0 0.0 0.00 0.00 0.00 1021.0
20260505022503 -17 0.0 0.0 0.00 0.00 0.00 1021.0
20260505022005 -17 0.0 0.0 0.00 0.00 0.00 1021.0
20260505021004 -17 0.0 0.0 0.00 0.00 0.00 1020.9
20260505020501 -17 0.0 0.0 0.00 0.00 0.00 1021.0
20260505015942 -17 0.0 0.0 0.00 0.00 0.00 1020.9
20260505015433 -17 0.0 0.0 0.00 0.00 0.00 1020.9
20260505014440 -17 0.0 0.0 0.00 0.00 0.00 1020.9
20260505013930 -17 0.0 0.0 0.00 0.00 0.00 1021.0
20260505013428 -17 0.0 0.0 0.00 0.00 0.00 1020.8
20260505012919 -17 0.0 0.0 0.00 0.00 0.00 1020.7
20260505011909 -17 0.0 0.0 0.00 0.00 0.00 1020.7
20260505011409 -17 0.0 0.0 0.00 0.00 0.00 1020.7
20260505010408 -17 0.0 0.0 0.00 0.00 0.00 1020.6
20260505005907 -17 0.0 0.0 0.00 0.00 0.00 1020.5
20260505005405 -17 0.0 0.0 0.00 0.00 0.00 1020.5
20260505003901 -17 0.0 0.0 0.00 0.00 0.00 1020.3
20260505003354 -17 0.0 0.0 0.00 0.00 0.00 1020.3
20260505002848 -17 0.0 0.0 0.00 0.00 0.00 1020.5
20260505002331 -17 0.0 0.0 0.00 0.00 0.00 1020.4
20260505001830 -17 0.0 0.0 0.00 0.00 0.00 1020.3
20260505000832 -17 0.0 0.0 0.00 0.00 0.00 1020.4
20260505000329 20 0.0 0.0 0.00 0.00 0.00 48 1020.5
20260504235829 20 190 4.8 3.2 0.00 0.00 0.00 48 1020.4
20260504235331 20 190 4.8 6.4 0.00 0.00 0.00 48 1010.7
20260504234830 20 190 4.8 9.7 0.00 0.00 0.00 48 1010.7
20260504234332 20 198 4.8 12.9 0.00 0.00 0.00 48 1010.6
20260504233831 20 198 4.8 12.9 0.00 0.00 0.00 46 1010.8
20260504232830 21 173 4.8 9.7 0.00 0.00 0.00 47 1010.8
20260504232332 21 209 4.8 11.3 0.00 0.00 0.00 46 1010.8
20260504231830 21 182 4.8 11.3 0.00 0.00 0.00 44 1010.8
20260504231330 21 182 6.4 12.9 0.00 0.00 0.00 44 1010.8
20260504230830 21 166 6.4 12.9 0.00 0.00 0.00 43 1010.9
20260504230330 21 189 8.0 22.5 0.00 0.00 0.00 43 1010.7
20260504225830 21 213 9.7 22.5 0.00 0.00 0.00 44 1010.8
20260504225330 21 197 9.7 16.1 0.00 0.00 0.00 41 1010.7
20260504224831 22 225 9.7 17.7 0.00 0.00 0.00 43 1010.8
20260504224330 22 204 8.0 17.7 0.00 0.00 0.00 42 1010.7
20260504223830 22 186 6.4 17.7 0.00 0.00 0.00 44 1010.7
20260504223330 22 169 8.0 17.7 0.00 0.00 0.00 44 1010.7
20260504222831 22 207 11.3 19.3 0.00 0.00 0.00 42 1010.7
20260504221331 22 211 11.3 19.3 0.00 0.00 0.00 41 1010.7
20260504220831 22 203 12.9 22.5 0.00 0.00 0.00 43 1010.8
20260504220329 22 176 11.3 22.5 0.00 0.00 0.00 41 1010.8
20260504215832 22 182 8.0 22.5 0.00 0.00 0.00 42 1010.9
20260504215329 22 186 8.0 17.7 0.00 0.00 0.00 42 1010.8
20260504214831 22 190 9.7 20.9 0.00 0.00 0.00 42 1010.7
20260504214330 22 177 9.7 20.9 0.00 0.00 0.00 42 1010.8
20260504213830 22 205 11.3 20.9 0.00 0.00 0.00 41 1010.9
20260504213331 22 200 12.9 20.9 0.00 0.00 0.00 45 1010.9
20260504212829 22 213 12.9 24.1 0.00 0.00 0.00 42 1010.9
20260504212330 22 209 12.9 27.4 0.00 0.00 0.00 41 1010.9
20260504211831 22 198 14.5 27.4 0.00 0.00 0.00 43 1010.9
20260504211332 22 189 16.1 27.4 0.00 0.00 0.00 40 1011.0
20260504210330 22 236 12.9 25.7 0.00 0.00 0.00 41 1011.0
20260504205831 22 211 14.5 25.7 0.00 0.00 0.00 42 1010.9
20260504205329 22 204 14.5 22.5 0.00 0.00 0.00 39 1011.0
20260504204330 22 185 16.1 30.6 0.00 0.00 0.00 41 1011.1
20260504203830 22 198 14.5 29.0 0.00 0.00 0.00 41 1011.0
20260504202329 22 171 14.5 25.7 0.00 0.00 0.00 39 1011.1
20260504201832 22 200 16.1 33.8 0.00 0.00 0.00 39 1011.2
20260504201330 21 202 17.7 33.8 0.00 0.00 0.00 42 1011.1
20260504200831 21 220 16.1 27.4 0.00 0.00 0.00 41 1011.1
20260504200330 22 206 14.5 27.4 0.00 0.00 0.00 42 1011.4
20260504195830 22 224 16.1 25.7 0.00 0.00 0.00 41 1011.4
20260504195330 21 225 16.1 27.4 0.00 0.00 0.00 41 1011.6
20260504194330 21 234 16.1 29.0 0.00 0.00 0.00 40 1012.0
20260504193831 21 169 17.7 29.0 0.00 0.00 0.00 41 1012.0
20260504193331 21 200 14.5 27.4 0.00 0.00 0.00 37 1012.1
20260504192829 21 219 14.5 27.4 0.00 0.00 0.00 41 1012.3
20260504192329 21 232 14.5 22.5 0.00 0.00 0.00 40 1012.3
20260504191830 21 215 16.1 35.4 0.00 0.00 0.00 41 1012.5
20260504191332 21 211 16.1 35.4 0.00 0.00 0.00 41 1012.5
20260504190830 21 245 16.1 27.4 0.00 0.00 0.00 42 1012.6
20260504190330 21 202 16.1 25.7 0.00 0.00 0.00 42 1012.6
20260504185831 21 217 17.7 27.4 0.00 0.00 0.00 39 1012.6
20260504185329 21 230 16.1 27.4 0.00 0.00 0.00 43 1012.6
20260504184832 21 211 12.9 24.1 0.00 0.00 0.00 41 1012.5
20260504184330 21 247 14.5 24.1 0.00 0.00 0.00 40 1012.7
20260504183330 21 217 14.5 27.4 0.00 0.00 0.00 42 1012.7
20260504182832 21 187 14.5 27.4 0.00 0.00 0.00 43 1012.8
20260504182331 21 207 12.9 24.1 0.00 0.00 0.00 44 1012.8
20260504181829 20 246 14.5 25.7 0.00 0.00 0.00 43 1012.9
20260504180831 20 204 14.5 25.7 0.00 0.00 0.00 44 1013.0
20260504180330 20 195 11.3 20.9 0.00 0.00 0.00 41 1013.1
20260504175830 20 243 11.3 24.1 0.00 0.00 0.00 41 1013.1
20260504175330 20 197 12.9 24.1 0.00 0.00 0.00 43 1013.3
20260504174830 21 234 12.9 25.7 0.00 0.00 0.00 44 1013.2
20260504174331 20 180 12.9 25.7 0.00 0.00 0.00 42 1013.2
20260504173331 20 226 14.5 25.7 0.00 0.00 0.00 42 1013.4
20260504172830 20 183 14.5 25.7 0.00 0.00 0.00 42 1013.5
20260504172331 20 213 14.5 27.4 0.00 0.00 0.00 41 1013.6
20260504171829 20 173 14.5 27.4 0.00 0.00 0.00 44 1013.5
20260504171330 20 205 14.5 25.7 0.00 0.00 0.00 40 1013.7
20260504170831 20 204 14.5 25.7 0.00 0.00 0.00 42 1013.8
20260504170330 20 200 14.5 25.7 0.00 0.00 0.00 46 1013.9
20260504160330 18 247 12.9 19.3 0.00 0.00 0.00 48 1014.6
20260504150833 17 228 11.3 19.3 0.00 0.00 0.00 54 1014.9
20260504150330 17 227 11.3 20.9 0.00 0.00 0.00 55 1014.8
20260504141329 -17 0.0 0.0 0.00 0.00 0.00 1024.7
20260504140832 -17 0.0 0.0 0.00 0.00 0.00 1024.7
20260504140333 -17 0.0 0.0 0.00 0.00 0.00 1024.7
20260504130818 -17 0.0 0.0 0.00 0.00 0.00 1025.0
20260504130312 -17 0.0 0.0 0.00 0.00 0.00 1025.0
20260504120302 -17 0.0 0.0 0.00 0.00 0.00 1025.2
20260504110702 -17 0.0 0.0 0.00 0.00 0.00 1025.5
20260504110201 -17 0.0 0.0 0.00 0.00 0.00 1025.5
20260504100203 -17 0.0 0.0 0.00 0.00 0.00 1025.6
20260504081627 -17 0.0 0.0 0.00 0.00 0.00 1025.7
20260504081119 -17 0.0 0.0 0.00 0.00 0.00 1025.7
20260504080613 -17 0.0 0.0 0.00 0.00 0.00 1025.6
20260504050505 -17 0.0 0.0 0.00 0.00 0.00 1025.7
20260504050002 -17 0.0 0.0 0.00 0.00 0.00 1025.7
20260504045506 -17 0.0 0.0 0.00 0.00 0.00 1025.7
20260504044506 -17 0.0 0.0 0.00 0.00 0.00 1025.8
20260504044005 -17 0.0 0.0 0.00 0.00 0.00 1025.7
20260504043505 -17 0.0 0.0 0.00 0.00 0.00 1025.7
20260504043002 -17 0.0 0.0 0.00 0.00 0.00 1025.7
20260504042506 -17 0.0 0.0 0.00 0.00 0.00 1025.7
20260504042005 -17 0.0 0.0 0.00 0.00 0.00 1025.7
20260504041504 -17 0.0 0.0 0.00 0.00 0.00 1025.6
20260504041001 -17 0.0 0.0 0.00 0.00 0.00 1025.4
20260504040504 -17 0.0 0.0 0.00 0.00 0.00 1025.4
20260504040013 -17 0.0 0.0 0.00 0.00 0.00 1025.3